User: anonymous   Login
Location: Cuzcurrita-R�o Tir�n
(42.5415°N, 2.9642°W)
Time: 12:03:21
(UTC+00:00)
Language:

BREEZE-M DEB (TANK) - Orbit

View from above orbital plane
View from above orbital plane
View from above satellite
View from above satellite

Ground track
Ground track

The orbit data is extracted from the following two-line orbital elements,

1 35495U 09034C   21112.51125419  .00002462  00000-0  55252-3 0  9993
2 35495  49.5913 225.6098 5010702 154.6194 242.2505  5.58345217236355
Epoch (UTC): 22 April 2021 12:16:12
Eccentricity: 0.5010702
inclination: 49.5913°
perigee height: 318 km
apogee height: 13768 km
right ascension of ascending node: 225.6098°
argument of perigee: 154.6194°
revolutions per day: 5.58345217
mean anomaly at epoch: 242.2505°
orbit number at epoch: 23635

The dashed part of the orbit path shows where the satellite is in the earth's shadow,  

DLR